date,time,water_lv
2014-07-01,00:00:00,124.3
2014-07-01,00:10:00,124.29
2014-07-01,00:20:00,124.29
2014-07-01,00:30:00,124.32
2014-07-01,00:40:00,124.3
2014-07-01,00:50:00,124.34
2014-07-01,01:00:00,124.35
2014-07-01,01:10:00,124.34
2014-07-01,01:20:00,124.32
2014-07-01,01:30:00,124.42
2014-07-01,01:40:00,124.38
2014-07-01,01:50:00,124.37
2014-07-01,02:00:00,123.69
2014-07-01,02:10:00,124.4
2014-07-01,02:20:00,124.42
2014-07-01,02:30:00,124.4
2014-07-01,02:40:00,124.43
2014-07-01,02:50:00,124.47
2014-07-01,03:00:00,124.51
2014-07-01,03:10:00,124.48
2014-07-01,03:20:00,124.49
2014-07-01,03:30:00,124.48
2014-07-01,03:40:00,124.55
2014-07-01,03:50:00,124.53
2014-07-01,04:00:00,124.52
2014-07-01,04:10:00,124.55
2014-07-01,04:20:00,124.51
2014-07-01,04:30:00,124.58
2014-07-01,04:40:00,124.6
2014-07-01,04:50:00,124.56
2014-07-01,05:00:00,124.59
2014-07-01,05:10:00,124.64
2014-07-01,05:20:00,124.66
2014-07-01,05:30:00,124.67
2014-07-01,05:40:00,124.69
2014-07-01,05:50:00,124.74
2014-07-01,06:00:00,124.73
2014-07-01,06:10:00,124.77
2014-07-01,06:20:00,124.79
2014-07-01,06:30:00,124.77
2014-07-01,06:40:00,124.8
2014-07-01,06:50:00,124.81
2014-07-01,07:00:00,124.85
2014-07-01,07:10:00,124.84
2014-07-01,07:20:00,124.88
2014-07-01,07:30:00,124.9
2014-07-01,07:40:00,124.89
2014-07-01,07:50:00,124.93
2014-07-01,08:00:00,124.95
2014-07-01,08:10:00,124.96
2014-07-01,08:20:00,124.99
2014-07-01,08:30:00,125
2014-07-01,08:40:00,125.02
2014-07-01,08:50:00,124.99
2014-07-01,09:00:00,125.05
2014-07-01,09:10:00,125.06
2014-07-01,09:20:00,125.09
2014-07-01,09:30:00,125.1
2014-07-01,09:40:00,125.1
2014-07-01,09:50:00,125.13
2014-07-01,10:00:00,125.17
2014-07-01,10:10:00,125.18
2014-07-01,10:20:00,125.18
2014-07-01,10:30:00,125.19
2014-07-01,10:40:00,125.19
2014-07-01,10:50:00,125.23
2014-07-01,11:00:00,125.23
2014-07-01,11:10:00,125.26
2014-07-01,11:20:00,125.25
2014-07-01,11:30:00,125.29
2014-07-01,11:40:00,125.31
2014-07-01,11:50:00,125.33
2014-07-01,12:00:00,125.33
2014-07-01,12:10:00,125.34
2014-07-01,12:20:00,125.34
2014-07-01,12:30:00,125.32
2014-07-01,12:40:00,125.34
2014-07-01,12:50:00,125.36
2014-07-01,13:00:00,125.39
2014-07-01,13:10:00,125.38
2014-07-01,13:20:00,125.41
2014-07-01,13:30:00,125.4
2014-07-01,13:40:00,125.42
2014-07-01,13:50:00,125.46
2014-07-01,14:00:00,125.46
2014-07-01,14:10:00,125.46
2014-07-01,14:20:00,125.48
2014-07-01,14:30:00,124.71
2014-07-01,14:40:00,125.57
2014-07-01,14:50:00,125.52
2014-07-01,15:00:00,125.54
2014-07-01,15:10:00,125.54
2014-07-01,15:20:00,124.73
2014-07-01,15:30:00,125.58
2014-07-01,15:40:00,125.63
2014-07-01,15:50:00,125.58
2014-07-01,16:00:00,125.65
2014-07-01,16:10:00,125.61
2014-07-01,16:20:00,125.66
2014-07-01,16:30:00,125.64
2014-07-01,16:40:00,125.64
2014-07-01,16:50:00,125.66
2014-07-01,17:00:00,124.89
2014-07-01,17:10:00,125.67
2014-07-01,17:20:00,125.73
2014-07-01,17:30:00,125.69
2014-07-01,17:40:00,125.75
2014-07-01,17:50:00,124.89
2014-07-01,18:00:00,125.75
2014-07-01,18:10:00,125.75
2014-07-01,18:20:00,125.76
2014-07-01,18:30:00,125.78
2014-07-01,18:40:00,124.98
2014-07-01,18:50:00,125.79
2014-07-01,19:00:00,125.83
2014-07-01,19:10:00,125.81
2014-07-01,19:20:00,125.84
2014-07-01,19:30:00,125.81
2014-07-01,19:40:00,125.81
2014-07-01,19:50:00,125.83
2014-07-01,20:00:00,125.88
2014-07-01,20:10:00,125.88
2014-07-01,20:20:00,125.88
2014-07-01,20:30:00,125.89
2014-07-01,20:40:00,125.89
2014-07-01,20:50:00,125.91
2014-07-01,21:00:00,125.92
2014-07-01,21:10:00,125.93
2014-07-01,21:20:00,125.93
2014-07-01,21:30:00,125.95
2014-07-01,21:40:00,125.96
2014-07-01,21:50:00,125.97
2014-07-01,22:00:00,125.98
2014-07-01,22:10:00,125.99
2014-07-01,22:20:00,125.97
2014-07-01,22:30:00,125.98
2014-07-01,22:40:00,125.96
2014-07-01,22:50:00,126.02
2014-07-01,23:00:00,126.01
2014-07-01,23:10:00,126.04
2014-07-01,23:20:00,126.02
2014-07-01,23:30:00,126.06
2014-07-01,23:40:00,126.04
2014-07-01,23:50:00,126.08
2014-07-02,00:00:00,126.06
2014-07-02,00:10:00,126.1
2014-07-02,00:20:00,126.08
2014-07-02,00:30:00,126.17
2014-07-02,00:40:00,126.15
2014-07-02,00:50:00,126.08
2014-07-02,01:00:00,126.14
2014-07-02,01:10:00,126.18
2014-07-02,01:20:00,126.16
2014-07-02,01:30:00,126.23
2014-07-02,01:40:00,126.17
2014-07-02,01:50:00,126.12
2014-07-02,02:00:00,126.13
2014-07-02,02:10:00,126.17
2014-07-02,02:20:00,126.17
2014-07-02,02:30:00,126.21
2014-07-02,02:40:00,126.19
2014-07-02,02:50:00,126.19
2014-07-02,03:00:00,126.23
2014-07-02,03:10:00,126.2
2014-07-02,03:20:00,126.25
2014-07-02,03:30:00,126.22
2014-07-02,03:40:00,126.26
2014-07-02,03:50:00,126.24
2014-07-02,04:00:00,126.28
2014-07-02,04:10:00,126.25
2014-07-02,04:20:00,126.29
2014-07-02,04:30:00,126.26
2014-07-02,04:40:00,126.31
2014-07-02,04:50:00,126.28
2014-07-02,05:00:00,126.32
2014-07-02,05:10:00,126.29
2014-07-02,05:20:00,126.33
2014-07-02,05:30:00,126.3
2014-07-02,05:40:00,126.38
2014-07-02,05:50:00,126.38
2014-07-02,06:00:00,126.39
2014-07-02,06:10:00,126.37
2014-07-02,06:20:00,126.41
2014-07-02,06:30:00,126.38
2014-07-02,06:40:00,126.43
2014-07-02,06:50:00,126.4
2014-07-02,07:00:00,126.45
2014-07-02,07:10:00,126.39
2014-07-02,07:20:00,126.43
2014-07-02,07:30:00,126.39
2014-07-02,07:40:00,126.5
2014-07-02,07:50:00,126.47
2014-07-02,08:00:00,126.46
2014-07-02,08:10:00,126.41
2014-07-02,08:20:00,125.59
2014-07-02,08:30:00,126.48
2014-07-02,08:40:00,126.48
2014-07-02,08:50:00,126.5
2014-07-02,09:00:00,126.49
2014-07-02,09:10:00,126.51
2014-07-02,09:20:00,126.49
2014-07-02,09:30:00,126.48
2014-07-02,09:40:00,126.52
2014-07-02,09:50:00,126.51
2014-07-02,10:00:00,126.52
2014-07-02,10:10:00,126.52
2014-07-02,10:20:00,126.48
2014-07-02,10:30:00,126.52
2014-07-02,10:40:00,126.52
2014-07-02,10:50:00,126.55
2014-07-02,11:00:00,126.55
2014-07-02,11:10:00,126.56
2014-07-02,11:20:00,126.56
2014-07-02,11:30:00,126.53
2014-07-02,11:40:00,126.56
2014-07-02,11:50:00,126.53
2014-07-02,12:00:00,126.58
2014-07-02,12:10:00,126.54
2014-07-02,12:20:00,126.59
2014-07-02,12:30:00,126.53
2014-07-02,12:40:00,126.6
2014-07-02,12:50:00,126.55
2014-07-02,13:00:00,126.61
2014-07-02,13:10:00,126.55
2014-07-02,13:20:00,126.62
2014-07-02,13:30:00,126.58
2014-07-02,13:40:00,126.62
2014-07-02,13:50:00,126.57
2014-07-02,14:00:00,126.63
2014-07-02,14:10:00,126.6
2014-07-02,14:20:00,126.63
2014-07-02,14:30:00,126.6
2014-07-02,14:40:00,126.64
2014-07-02,14:50:00,126.61
2014-07-02,15:00:00,126.65
2014-07-02,15:10:00,126.6
2014-07-02,15:20:00,126.65
2014-07-02,15:30:00,126.62
2014-07-02,15:40:00,126.66
2014-07-02,15:50:00,126.6
2014-07-02,16:00:00,126.63
2014-07-02,16:10:00,126.59
2014-07-02,16:20:00,126.65
2014-07-02,16:30:00,126.61
2014-07-02,16:40:00,126.66
2014-07-02,16:50:00,126.63
2014-07-02,17:00:00,126.66
2014-07-02,17:10:00,126.6
2014-07-02,17:20:00,126.66
2014-07-02,17:30:00,126.6
2014-07-02,17:40:00,126.66
2014-07-02,17:50:00,126.63
2014-07-02,18:00:00,126.66
2014-07-02,18:10:00,126.63
2014-07-02,18:20:00,126.66
2014-07-02,18:30:00,126.63
2014-07-02,18:40:00,126.67
2014-07-02,18:50:00,126.63
2014-07-02,19:00:00,126.66
2014-07-02,19:10:00,126.63
2014-07-02,19:20:00,126.63
2014-07-02,19:30:00,126.65
2014-07-02,19:40:00,126.64
2014-07-02,19:50:00,126.64
2014-07-02,20:00:00,126.67
2014-07-02,20:10:00,126.65
2014-07-02,20:20:00,126.68
2014-07-02,20:30:00,126.64
2014-07-02,20:40:00,126.68
2014-07-02,20:50:00,126.63
2014-07-02,21:00:00,126.68
2014-07-02,21:10:00,126.63
2014-07-02,21:20:00,126.68
2014-07-02,21:30:00,126.63
2014-07-02,21:40:00,126.68
2014-07-02,21:50:00,126.63
2014-07-02,22:00:00,126.69
2014-07-02,22:10:00,126.63
2014-07-02,22:20:00,126.69
2014-07-02,22:30:00,125.73
2014-07-02,22:40:00,126.69
2014-07-02,22:50:00,126.64
2014-07-02,23:00:00,126.7
2014-07-02,23:10:00,126.64
2014-07-02,23:20:00,126.7
2014-07-02,23:30:00,126.65
2014-07-02,23:40:00,126.71
2014-07-02,23:50:00,126.64
2014-07-03,00:00:00,126.72
2014-07-03,00:10:00,126.71
2014-07-03,00:20:00,126.68
2014-07-03,00:30:00,126.7
2014-07-03,00:40:00,126.7
2014-07-03,00:50:00,126.71
2014-07-03,01:00:00,126.68
2014-07-03,01:10:00,126.72
2014-07-03,01:20:00,126.72
2014-07-03,01:30:00,126.72
2014-07-03,01:40:00,126.73
2014-07-03,01:50:00,126.79
2014-07-03,02:00:00,126.7
2014-07-03,02:10:00,126.79
2014-07-03,02:20:00,126.7
2014-07-03,02:30:00,126.79
2014-07-03,02:40:00,126.7
2014-07-03,02:50:00,126.84
2014-07-03,03:00:00,126.7
2014-07-03,03:10:00,126.82
2014-07-03,03:20:00,126.74
2014-07-03,03:30:00,126.77
2014-07-03,03:40:00,126.74
2014-07-03,03:50:00,126.73
2014-07-03,04:00:00,126.76
2014-07-03,04:10:00,126.78
2014-07-03,04:20:00,126.74
2014-07-03,04:30:00,126.84
2014-07-03,04:40:00,126.8
2014-07-03,04:50:00,126.76
2014-07-03,05:00:00,126.76
2014-07-03,05:10:00,126.75
2014-07-03,05:20:00,126.72
2014-07-03,05:30:00,126.75
2014-07-03,05:40:00,126.72
2014-07-03,05:50:00,125.87
2014-07-03,06:00:00,126.73
2014-07-03,06:10:00,126.77
2014-07-03,06:20:00,126.76
2014-07-03,06:30:00,126.77
2014-07-03,06:40:00,126.76
2014-07-03,06:50:00,126.76
2014-07-03,07:00:00,126.76
2014-07-03,07:10:00,126.78
2014-07-03,07:20:00,126.74
2014-07-03,07:30:00,126.79
2014-07-03,07:40:00,126.75
2014-07-03,07:50:00,126.73
2014-07-03,08:00:00,126.76
2014-07-03,08:10:00,126.72
2014-07-03,08:20:00,126.77
2014-07-03,08:30:00,126.73
2014-07-03,08:40:00,126.83
2014-07-03,08:50:00,126.73
2014-07-03,09:00:00,126.76
2014-07-03,09:10:00,126.75
2014-07-03,09:20:00,126.79
2014-07-03,09:30:00,126.76
2014-07-03,09:40:00,126.8
2014-07-03,09:50:00,126.77
2014-07-03,10:00:00,126.77
2014-07-03,10:10:00,126.77
2014-07-03,10:20:00,126.86
2014-07-03,10:30:00,126.77
2014-07-03,10:40:00,126.79
2014-07-03,10:50:00,126.79
2014-07-03,11:00:00,126.8
2014-07-03,11:10:00,126.77
2014-07-03,11:20:00,126.79
2014-07-03,11:30:00,126.81
2014-07-03,11:40:00,126.8
2014-07-03,11:50:00,126.8
2014-07-03,12:00:00,126.86
2014-07-03,12:10:00,126.83
2014-07-03,12:20:00,126.83
2014-07-03,12:30:00,126.84
2014-07-03,12:40:00,126.84
2014-07-03,12:50:00,126.84
2014-07-03,13:00:00,126.84
2014-07-03,13:10:00,126.84
2014-07-03,13:20:00,126.84
2014-07-03,13:30:00,126.89
2014-07-03,13:40:00,126.83
2014-07-03,13:50:00,126.85
2014-07-03,14:00:00,126.85
2014-07-03,14:10:00,126.84
2014-07-03,14:20:00,126.83
2014-07-03,14:30:00,125.91
2014-07-03,14:40:00,126.85
2014-07-03,14:50:00,126.85
2014-07-03,15:00:00,126.81
2014-07-03,15:10:00,126.84
2014-07-03,15:20:00,126.82
2014-07-03,15:30:00,126.8
2014-07-03,15:40:00,126.77
2014-07-03,15:50:00,126.82
2014-07-03,16:00:00,126.76
2014-07-03,16:10:00,126.83
2014-07-03,16:20:00,126.81
2014-07-03,16:30:00,126.82
2014-07-03,16:40:00,126.8
2014-07-03,16:50:00,126.82
2014-07-03,17:00:00,126.79
2014-07-03,17:10:00,126.81
2014-07-03,17:20:00,126.78
2014-07-03,17:30:00,126.78
2014-07-03,17:40:00,126.78
2014-07-03,17:50:00,126.76
2014-07-03,18:00:00,126.78
2014-07-03,18:10:00,126.78
2014-07-03,18:20:00,126.78
2014-07-03,18:30:00,126.77
2014-07-03,18:40:00,126.77
2014-07-03,18:50:00,126.75
2014-07-03,19:00:00,126.77
2014-07-03,19:10:00,126.74
2014-07-03,19:20:00,126.74
2014-07-03,19:30:00,125.83
2014-07-03,19:40:00,126.74
2014-07-03,19:50:00,126.76
2014-07-03,20:00:00,126.73
2014-07-03,20:10:00,126.8
2014-07-03,20:20:00,126.73
2014-07-03,20:30:00,126.76
2014-07-03,20:40:00,126.73
2014-07-03,20:50:00,126.76
2014-07-03,21:00:00,126.8
2014-07-03,21:10:00,125.85
2014-07-03,21:20:00,126.73
2014-07-03,21:30:00,126.76
2014-07-03,21:40:00,126.73
2014-07-03,21:50:00,126.73
2014-07-03,22:00:00,126.72
2014-07-03,22:10:00,126.75
2014-07-03,22:20:00,126.73
2014-07-03,22:30:00,126.75
2014-07-03,22:40:00,126.72
2014-07-03,22:50:00,126.79
2014-07-03,23:00:00,126.72
2014-07-03,23:10:00,126.8
2014-07-03,23:20:00,126.78
2014-07-03,23:30:00,126.78
2014-07-03,23:40:00,126.84
2014-07-03,23:50:00,126.77
2014-07-04,00:00:00,126.84
2014-07-04,00:10:00,126.78
2014-07-04,00:20:00,126.74
2014-07-04,00:30:00,126.78
2014-07-04,00:40:00,126.74
2014-07-04,00:50:00,126.78
2014-07-04,01:00:00,126.81
2014-07-04,01:10:00,126.81
2014-07-04,01:20:00,126.74
2014-07-04,01:30:00,126.71
2014-07-04,01:40:00,126.73
2014-07-04,01:50:00,126.73
2014-07-04,02:00:00,126.75
2014-07-04,02:10:00,126.78
2014-07-04,02:20:00,125.87
2014-07-04,02:30:00,126.76
2014-07-04,02:40:00,126.79
2014-07-04,02:50:00,126.74
2014-07-04,03:00:00,126.75
2014-07-04,03:10:00,126.72
2014-07-04,03:20:00,126.72
2014-07-04,03:30:00,126.76
2014-07-04,03:40:00,126.73
2014-07-04,03:50:00,126.68
2014-07-04,04:00:00,126.74
2014-07-04,04:10:00,126.77
2014-07-04,04:20:00,126.75
2014-07-04,04:30:00,126.8
2014-07-04,04:40:00,126.74
2014-07-04,04:50:00,126.76
2014-07-04,05:00:00,126.72
2014-07-04,05:10:00,126.72
2014-07-04,05:20:00,126.72
2014-07-04,05:30:00,126.7
2014-07-04,05:40:00,126.73
2014-07-04,05:50:00,126.74
2014-07-04,06:00:00,126.79
2014-07-04,06:10:00,126.73
2014-07-04,06:20:00,126.66
2014-07-04,06:30:00,126.72
2014-07-04,06:40:00,126.66
2014-07-04,06:50:00,126.71
2014-07-04,07:00:00,126.74
2014-07-04,07:10:00,126.73
2014-07-04,07:20:00,126.73
2014-07-04,07:30:00,126.72
2014-07-04,07:40:00,126.71
2014-07-04,07:50:00,126.78
2014-07-04,08:00:00,126.68
2014-07-04,08:10:00,126.68
2014-07-04,08:20:00,126.69
2014-07-04,08:30:00,126.69
2014-07-04,08:40:00,126.67
2014-07-04,08:50:00,126.71
2014-07-04,09:00:00,126.74
2014-07-04,09:10:00,126.69
2014-07-04,09:20:00,126.78
2014-07-04,09:30:00,126.72
2014-07-04,09:40:00,126.65
2014-07-04,09:50:00,126.7
2014-07-04,10:00:00,126.64
2014-07-04,10:10:00,126.68
2014-07-04,10:20:00,125.8
2014-07-04,10:30:00,126.71
2014-07-04,10:40:00,126.67
2014-07-04,10:50:00,126.71
2014-07-04,11:00:00,126.67
2014-07-04,11:10:00,126.76
2014-07-04,11:20:00,126.67
2014-07-04,11:30:00,126.64
2014-07-04,11:40:00,126.65
2014-07-04,11:50:00,125.76
2014-07-04,12:00:00,126.67
2014-07-04,12:10:00,126.64
2014-07-04,12:20:00,126.68
2014-07-04,12:30:00,126.68
2014-07-04,12:40:00,126.7
2014-07-04,12:50:00,126.64
2014-07-04,13:00:00,126.67
2014-07-04,13:10:00,126.64
2014-07-04,13:20:00,126.63
2014-07-04,13:30:00,126.61
2014-07-04,13:40:00,126.64
2014-07-04,13:50:00,126.59
2014-07-04,14:00:00,126.65
2014-07-04,14:10:00,126.68
2014-07-04,14:20:00,126.65
2014-07-04,14:30:00,126.7
2014-07-04,14:40:00,126.63
2014-07-04,14:50:00,125.67
2014-07-04,15:00:00,126.61
2014-07-04,15:10:00,126.61
2014-07-04,15:20:00,126.58
2014-07-04,15:30:00,126.57
2014-07-04,15:40:00,126.59
2014-07-04,15:50:00,126.59
2014-07-04,16:00:00,126.61
2014-07-04,16:10:00,126.55
2014-07-04,16:20:00,126.06
2014-07-04,16:30:00,126.51
2014-07-04,16:40:00,126.53
2014-07-04,16:50:00,126.56
2014-07-04,17:00:00,126.55
2014-07-04,17:10:00,126.52
2014-07-04,17:20:00,126.55
2014-07-04,17:30:00,126.58
2014-07-04,17:40:00,126.55
2014-07-04,17:50:00,126.6
2014-07-04,18:00:00,126.52
2014-07-04,18:10:00,126.46
2014-07-04,18:20:00,126.48
2014-07-04,18:30:00,126.47
2014-07-04,18:40:00,126.49
2014-07-04,18:50:00,126.51
2014-07-04,19:00:00,126.49
2014-07-04,19:10:00,126.48
2014-07-04,19:20:00,126.46
2014-07-04,19:30:00,126.43
2014-07-04,19:40:00,126.51
2014-07-04,19:50:00,126.41
2014-07-04,20:00:00,126.41
2014-07-04,20:10:00,126.43
2014-07-04,20:20:00,126.42
2014-07-04,20:30:00,126.39
2014-07-04,20:40:00,126.42
2014-07-04,20:50:00,126.45
2014-07-04,21:00:00,126.42
2014-07-04,21:10:00,126.47
2014-07-04,21:20:00,126.4
2014-07-04,21:30:00,126.36
2014-07-04,21:40:00,126.37
2014-07-04,21:50:00,126.37
2014-07-04,22:00:00,126.37
2014-07-04,22:10:00,126.33
2014-07-04,22:20:00,126.36
2014-07-04,22:30:00,126.36
2014-07-04,22:40:00,126.44
2014-07-04,22:50:00,126.34
2014-07-04,23:00:00,126.27
2014-07-04,23:10:00,126.31
2014-07-04,23:20:00,126.28
2014-07-04,23:30:00,126.3
2014-07-04,23:40:00,126.32
2014-07-04,23:50:00,126.3
2014-07-05,00:00:00,126.29
2014-07-05,00:10:00,126.28
2014-07-05,00:20:00,126.27
2014-07-05,00:30:00,126.26
2014-07-05,00:40:00,126.23
2014-07-05,00:50:00,126.26
2014-07-05,01:00:00,126.26
2014-07-05,01:10:00,126.31
2014-07-05,01:20:00,126.24
2014-07-05,01:30:00,126.16
2014-07-05,01:40:00,126.21
2014-07-05,01:50:00,126.15
2014-07-05,02:00:00,126.25
2014-07-05,02:10:00,126.22
2014-07-05,02:20:00,126.2
2014-07-05,02:30:00,126.19
2014-07-05,02:40:00,126.18
2014-07-05,02:50:00,126.15
2014-07-05,03:00:00,126.23
2014-07-05,03:10:00,126.16
2014-07-05,03:20:00,126.12
2014-07-05,03:30:00,126.14
2014-07-05,03:40:00,126.1
2014-07-05,03:50:00,126.12
2014-07-05,04:00:00,126.08
2014-07-05,04:10:00,126.12
2014-07-05,04:20:00,126.11
2014-07-05,04:30:00,126.11
2014-07-05,04:40:00,126.07
2014-07-05,04:50:00,126.14
2014-07-05,05:00:00,126.07
2014-07-05,05:10:00,126.03
2014-07-05,05:20:00,126.05
2014-07-05,05:30:00,126.02
2014-07-05,05:40:00,126.05
2014-07-05,05:50:00,126
2014-07-05,06:00:00,126.04
2014-07-05,06:10:00,126.03
2014-07-05,06:20:00,126.03
2014-07-05,06:30:00,125.99
2014-07-05,06:40:00,126.07
2014-07-05,06:50:00,126.05
2014-07-05,07:00:00,125.94
2014-07-05,07:10:00,125.98
2014-07-05,07:20:00,125.94
2014-07-05,07:30:00,125.97
2014-07-05,07:40:00,125.96
2014-07-05,07:50:00,125.9
2014-07-05,08:00:00,125.94
2014-07-05,08:10:00,125.93
2014-07-05,08:20:00,125.97
2014-07-05,08:30:00,125.96
2014-07-05,08:40:00,125.89
2014-07-05,08:50:00,125.96
2014-07-05,09:00:00,125.88
2014-07-05,09:10:00,125.88
2014-07-05,09:20:00,125.9
2014-07-05,09:30:00,125.88
2014-07-05,09:40:00,125.9
2014-07-05,09:50:00,125.91
2014-07-05,10:00:00,125.82
2014-07-05,10:10:00,125.85
2014-07-05,10:20:00,125.91
2014-07-05,10:30:00,125.87
2014-07-05,10:40:00,125.92
2014-07-05,10:50:00,125.85
2014-07-05,11:00:00,125.79
2014-07-05,11:10:00,125.83
2014-07-05,11:20:00,125.77
2014-07-05,11:30:00,125.81
2014-07-05,11:40:00,125.78
2014-07-05,11:50:00,125.8
2014-07-05,12:00:00,125.78
2014-07-05,12:10:00,125.79
2014-07-05,12:20:00,125.75
2014-07-05,12:30:00,125.83
2014-07-05,12:40:00,125.73
2014-07-05,12:50:00,125.72
2014-07-05,13:00:00,125.73
2014-07-05,13:10:00,125.73
2014-07-05,13:20:00,125.65
2014-07-05,13:30:00,125.72
2014-07-05,13:40:00,125.75
2014-07-05,13:50:00,125.71
2014-07-05,14:00:00,125.73
2014-07-05,14:10:00,125.67
2014-07-05,14:20:00,125.65
2014-07-05,14:30:00,125.66
2014-07-05,14:40:00,125.66
2014-07-05,14:50:00,125.64
2014-07-05,15:00:00,125.61
2014-07-05,15:10:00,125.65
2014-07-05,15:20:00,125.66
2014-07-05,15:30:00,125.71
2014-07-05,15:40:00,125.59
2014-07-05,15:50:00,125.52
2014-07-05,16:00:00,125.55
2014-07-05,16:10:00,125.55
2014-07-05,16:20:00,125.56
2014-07-05,16:30:00,125.58
2014-07-05,16:40:00,125.56
2014-07-05,16:50:00,125.52
2014-07-05,17:00:00,125.53
2014-07-05,17:10:00,125.53
2014-07-05,17:20:00,125.57
2014-07-05,17:30:00,125.5
2014-07-05,17:40:00,125.46
2014-07-05,17:50:00,125.48
2014-07-05,18:00:00,125.44
2014-07-05,18:10:00,125.5
2014-07-05,18:20:00,125.4
2014-07-05,18:30:00,125.43
2014-07-05,18:40:00,125.46
2014-07-05,18:50:00,125.5
2014-07-05,19:00:00,125.37
2014-07-05,19:10:00,125.33
2014-07-05,19:20:00,125.35
2014-07-05,19:30:00,125.33
2014-07-05,19:40:00,125.36
2014-07-05,19:50:00,125.37
2014-07-05,20:00:00,125.3
2014-07-05,20:10:00,125.31
2014-07-05,20:20:00,125.33
2014-07-05,20:30:00,125.29
2014-07-05,20:40:00,125.36
2014-07-05,20:50:00,125.26
2014-07-05,21:00:00,125.26
2014-07-05,21:10:00,125.25
2014-07-05,21:20:00,125.26
2014-07-05,21:30:00,125.2
2014-07-05,21:40:00,125.24
2014-07-05,21:50:00,125.25
2014-07-05,22:00:00,125.2
2014-07-05,22:10:00,125.27
2014-07-05,22:20:00,125.17
2014-07-05,22:30:00,125.17
2014-07-05,22:40:00,125.18
2014-07-05,22:50:00,125.16
2014-07-05,23:00:00,125.12
2014-07-05,23:10:00,125.14
2014-07-05,23:20:00,125.18
2014-07-05,23:30:00,125.14
2014-07-05,23:40:00,125.19
2014-07-05,23:50:00,125.09
2014-07-06,00:00:00,125.09
2014-07-06,00:10:00,125.1
2014-07-06,00:20:00,125.09
2014-07-06,00:30:00,125.13
2014-07-06,00:40:00,125.04
2014-07-06,00:50:00,125.06
2014-07-06,01:00:00,125.06
2014-07-06,01:10:00,125.11
2014-07-06,01:20:00,125.04
2014-07-06,01:30:00,124.94
2014-07-06,01:40:00,125.01
2014-07-06,01:50:00,124.95
2014-07-06,02:00:00,124.98
2014-07-06,02:10:00,124.95
2014-07-06,02:20:00,124.97
2014-07-06,02:30:00,124.97
2014-07-06,02:40:00,124.99
2014-07-06,02:50:00,124.94
2014-07-06,03:00:00,124.95
2014-07-06,03:10:00,124.89
2014-07-06,03:20:00,124.89
2014-07-06,03:30:00,124.89
2014-07-06,03:40:00,124.15
2014-07-06,03:50:00,124.84
2014-07-06,04:00:00,124.89
2014-07-06,04:10:00,124.89
2014-07-06,04:20:00,124.88
2014-07-06,04:30:00,124.99
2014-07-06,04:40:00,124.85
2014-07-06,04:50:00,124.81
2014-07-06,05:00:00,124.81
2014-07-06,05:10:00,124.8
2014-07-06,05:20:00,124.82
2014-07-06,05:30:00,124.82
2014-07-06,05:40:00,124.76
2014-07-06,05:50:00,124.78
2014-07-06,06:00:00,124.8
2014-07-06,06:10:00,124.77
2014-07-06,06:20:00,124.87
2014-07-06,06:30:00,124.74
2014-07-06,06:40:00,124.75
2014-07-06,06:50:00,124.72
2014-07-06,07:00:00,124.75
2014-07-06,07:10:00,124.7
2014-07-06,07:20:00,124.71
2014-07-06,07:30:00,124.73
2014-07-06,07:40:00,124.74
2014-07-06,07:50:00,124.78
2014-07-06,08:00:00,124.69
2014-07-06,08:10:00,124.64
2014-07-06,08:20:00,124.66
2014-07-06,08:30:00,123.91
2014-07-06,08:40:00,124.68
2014-07-06,08:50:00,124.68
2014-07-06,09:00:00,124.63
2014-07-06,09:10:00,124.67
2014-07-06,09:20:00,124.7
2014-07-06,09:30:00,124.67
2014-07-06,09:40:00,124.71
2014-07-06,09:50:00,124.64
2014-07-06,10:00:00,124.58
2014-07-06,10:10:00,124.63
2014-07-06,10:20:00,124.61
2014-07-06,10:30:00,124.61
2014-07-06,10:40:00,124.63
2014-07-06,10:50:00,124.56
2014-07-06,11:00:00,124.61
2014-07-06,11:10:00,124.63
2014-07-06,11:20:00,124.59
2014-07-06,11:30:00,124.65
2014-07-06,11:40:00,124.56
2014-07-06,11:50:00,124.57
2014-07-06,12:00:00,124.51
2014-07-06,12:10:00,124.58
2014-07-06,12:20:00,124.54
2014-07-06,12:30:00,124.55
2014-07-06,12:40:00,124.53
2014-07-06,12:50:00,124.51
2014-07-06,13:00:00,124.52
2014-07-06,13:10:00,124.51
2014-07-06,13:20:00,124.52
2014-07-06,13:30:00,124.48
2014-07-06,13:40:00,124.54
2014-07-06,13:50:00,124.5
2014-07-06,14:00:00,124.43
2014-07-06,14:10:00,124.47
2014-07-06,14:20:00,124.44
2014-07-06,14:30:00,124.45
2014-07-06,14:40:00,124.43
2014-07-06,14:50:00,124.45
2014-07-06,15:00:00,124.47
2014-07-06,15:10:00,124.43
2014-07-06,15:20:00,124.4
2014-07-06,15:30:00,124.47
2014-07-06,15:40:00,124.41
2014-07-06,15:50:00,124.37
2014-07-06,16:00:00,124.37
2014-07-06,16:10:00,124.37
2014-07-06,16:20:00,124.38
2014-07-06,16:30:00,124.33
2014-07-06,16:40:00,124.36
2014-07-06,16:50:00,124.34
2014-07-06,17:00:00,124.34
2014-07-06,17:10:00,124.31
2014-07-06,17:20:00,124.39
2014-07-06,17:30:00,124.32
2014-07-06,17:40:00,124.29
2014-07-06,17:50:00,124.3
2014-07-06,18:00:00,124.27
2014-07-06,18:10:00,124.29
2014-07-06,18:20:00,124.25
2014-07-06,18:30:00,124.28
2014-07-06,18:40:00,124.27
2014-07-06,18:50:00,124.27
2014-07-06,19:00:00,124.23
2014-07-06,19:10:00,124.29
2014-07-06,19:20:00,124.21
2014-07-06,19:30:00,124.2
2014-07-06,19:40:00,124.19
2014-07-06,19:50:00,124.22
2014-07-06,20:00:00,124.19
2014-07-06,20:10:00,124.17
2014-07-06,20:20:00,124.2
2014-07-06,20:30:00,124.2
2014-07-06,20:40:00,124.23
2014-07-06,20:50:00,124.17
2014-07-06,21:00:00,124.12
2014-07-06,21:10:00,124.16
2014-07-06,21:20:00,124.13
2014-07-06,21:30:00,124.13
2014-07-06,21:40:00,124.11
2014-07-06,21:50:00,124.13
2014-07-06,22:00:00,124.16
2014-07-06,22:10:00,124.19
2014-07-06,22:20:00,124.13
2014-07-06,22:30:00,124.05
2014-07-06,22:40:00,124.09
2014-07-06,22:50:00,124.07
2014-07-06,23:00:00,124.07
2014-07-06,23:10:00,124.08
2014-07-06,23:20:00,124.08
2014-07-06,23:30:00,124.02
2014-07-06,23:40:00,124.09
2014-07-06,23:50:00,124.06
2014-07-07,00:00:00,124.08
2014-07-07,00:10:00,124.02
2014-07-07,00:20:00,124.01
2014-07-07,00:30:00,124.01
2014-07-07,00:40:00,124.04
2014-07-07,00:50:00,124.01
2014-07-07,01:00:00,124.02
2014-07-07,01:10:00,124
2014-07-07,01:20:00,123.96
2014-07-07,01:30:00,124.02
2014-07-07,01:40:00,123.94
2014-07-07,01:50:00,123.93
2014-07-07,02:00:00,123.97
2014-07-07,02:10:00,123.95
2014-07-07,02:20:00,123.95
2014-07-07,02:30:00,123.97
2014-07-07,02:40:00,123.94
2014-07-07,02:50:00,123.96
2014-07-07,03:00:00,123.96
2014-07-07,03:10:00,123.9
2014-07-07,03:20:00,123.93
2014-07-07,03:30:00,123.89
2014-07-07,03:40:00,123.86
2014-07-07,03:50:00,123.9
2014-07-07,04:00:00,123.9
2014-07-07,04:10:00,123.88
2014-07-07,04:20:00,123.16